Year,Month,Day,Hour,Minute,Value (Times are PST for temperature in C)
2013,05,04,00,24,11.80
2013,05,04,00,25,11.70
2013,05,04,00,26,11.70
2013,05,04,00,27,11.70
2013,05,04,00,28,11.70
2013,05,04,00,29,11.70
2013,05,04,00,30,11.70
2013,05,04,00,31,11.70
2013,05,04,00,32,11.60
2013,05,04,00,33,11.60
2013,05,04,00,34,11.60
2013,05,04,00,35,11.60
2013,05,04,00,36,11.60
2013,05,04,00,37,11.60
2013,05,04,00,38,11.50
2013,05,04,00,39,11.50
2013,05,04,00,40,11.50
2013,05,04,00,41,11.50
2013,05,04,00,42,11.50
2013,05,04,00,43,11.40
2013,05,04,00,44,11.40
2013,05,04,00,45,11.40
2013,05,04,00,46,11.40
2013,05,04,00,47,11.40
2013,05,04,00,48,11.40
2013,05,04,00,49,11.40
2013,05,04,00,50,11.40
2013,05,04,00,51,11.40
2013,05,04,00,52,11.40
2013,05,04,00,53,11.30
2013,05,04,00,54,11.30
2013,05,04,00,55,11.30
2013,05,04,00,56,11.30
2013,05,04,00,57,11.30
2013,05,04,00,58,11.20
2013,05,04,00,59,11.20
2013,05,04,01,00,11.20
2013,05,04,01,01,11.20
2013,05,04,01,02,11.10
2013,05,04,01,03,11.10
2013,05,04,01,04,11.10
2013,05,04,01,05,11.00
2013,05,04,01,06,11.00
2013,05,04,01,07,10.90
2013,05,04,01,08,10.90
2013,05,04,01,09,10.90
2013,05,04,01,10,10.80
2013,05,04,01,11,10.80
2013,05,04,01,12,10.80
2013,05,04,01,13,10.80
2013,05,04,01,14,10.70
2013,05,04,01,15,10.70
2013,05,04,01,16,10.70
2013,05,04,01,17,10.70
2013,05,04,01,18,10.60
2013,05,04,01,19,10.70
2013,05,04,01,20,10.60
2013,05,04,01,21,10.60
2013,05,04,01,22,10.60
2013,05,04,01,23,10.60
2013,05,04,01,24,10.60
2013,05,04,01,25,10.50
2013,05,04,01,26,10.50
2013,05,04,01,27,10.50
2013,05,04,01,28,10.40
2013,05,04,01,29,10.40
2013,05,04,01,30,10.40
2013,05,04,01,31,10.40
2013,05,04,01,32,10.40
2013,05,04,01,33,10.40
2013,05,04,01,34,10.30
2013,05,04,01,35,10.30
2013,05,04,01,36,10.30
2013,05,04,01,37,10.30
2013,05,04,01,38,10.30
2013,05,04,01,39,10.30
2013,05,04,01,40,10.30
2013,05,04,01,41,10.30
2013,05,04,01,42,10.30
2013,05,04,01,43,10.20
2013,05,04,01,44,10.20
2013,05,04,01,45,10.20
2013,05,04,01,46,10.20
2013,05,04,01,47,10.20
2013,05,04,01,48,10.10
2013,05,04,01,49,10.10
2013,05,04,01,50,10.10
2013,05,04,01,51,10.10
2013,05,04,01,52,10.00
2013,05,04,01,53,10.00
2013,05,04,01,54,9.90
2013,05,04,01,55,9.90
2013,05,04,01,56,9.90
2013,05,04,01,57,9.90
2013,05,04,01,58,9.90
2013,05,04,01,59,9.80
2013,05,04,02,00,9.80
2013,05,04,02,01,9.80
2013,05,04,02,02,9.80
2013,05,04,02,03,9.80
2013,05,04,02,04,9.80
2013,05,04,02,05,9.80
2013,05,04,02,06,9.80
2013,05,04,02,07,9.80
2013,05,04,02,08,9.70
2013,05,04,02,09,9.70
2013,05,04,02,10,9.70
2013,05,04,02,11,9.70
2013,05,04,02,12,9.70
2013,05,04,02,13,9.60
2013,05,04,02,14,9.60
2013,05,04,02,15,9.60
2013,05,04,02,16,9.50
2013,05,04,02,17,9.40
2013,05,04,02,18,9.40
2013,05,04,02,19,9.40
2013,05,04,02,20,9.40
2013,05,04,02,21,9.40
2013,05,04,02,22,9.30
2013,05,04,02,23,9.30
2013,05,04,02,24,9.30
2013,05,04,02,25,9.30
2013,05,04,02,26,9.30
2013,05,04,02,27,9.30
2013,05,04,02,28,9.30
2013,05,04,02,29,9.20
2013,05,04,02,30,9.20
2013,05,04,02,31,9.20
2013,05,04,02,32,9.20
2013,05,04,02,33,9.20
2013,05,04,02,34,9.20
2013,05,04,02,35,9.20
2013,05,04,02,36,9.10
2013,05,04,02,37,9.10
2013,05,04,02,38,9.10
2013,05,04,02,39,9.10
2013,05,04,02,40,9.10
2013,05,04,02,41,9.10
2013,05,04,02,42,9.10
2013,05,04,02,43,9.10
2013,05,04,02,44,9.00
2013,05,04,02,45,9.00
2013,05,04,02,46,9.00
2013,05,04,02,47,9.00
2013,05,04,02,48,9.00
2013,05,04,02,49,9.00
2013,05,04,02,50,9.00
2013,05,04,02,51,9.00
2013,05,04,02,52,9.00
2013,05,04,02,53,9.10
2013,05,04,02,54,9.10
2013,05,04,02,55,9.10
2013,05,04,02,56,9.00
2013,05,04,02,57,9.00
2013,05,04,02,58,9.00
2013,05,04,02,59,9.00
2013,05,04,03,00,9.00
2013,05,04,03,01,9.00
2013,05,04,03,02,9.00
2013,05,04,03,03,9.00
2013,05,04,03,04,9.00
2013,05,04,03,05,9.00
2013,05,04,03,06,9.00
2013,05,04,03,07,9.00
2013,05,04,03,08,9.00
2013,05,04,03,09,9.10
2013,05,04,03,10,9.00
2013,05,04,03,11,9.00
2013,05,04,03,12,9.00
2013,05,04,03,13,9.00
2013,05,04,03,14,8.90
2013,05,04,03,15,8.90
2013,05,04,03,16,8.90
2013,05,04,03,17,8.90
2013,05,04,03,18,8.90
2013,05,04,03,19,8.80
2013,05,04,03,20,8.80
2013,05,04,03,21,8.80
2013,05,04,03,22,8.80
2013,05,04,03,23,8.70
2013,05,04,03,24,8.70
2013,05,04,03,25,8.70
2013,05,04,03,26,8.60
2013,05,04,03,27,8.60
2013,05,04,03,28,8.60
2013,05,04,03,29,8.60
2013,05,04,03,30,8.50
2013,05,04,03,31,8.50
2013,05,04,03,32,8.40
2013,05,04,03,33,8.40
2013,05,04,03,34,8.40
2013,05,04,03,35,8.40
2013,05,04,03,36,8.40
2013,05,04,03,37,8.40
2013,05,04,03,38,8.30
2013,05,04,03,39,8.30
2013,05,04,03,40,8.30
2013,05,04,03,41,8.30
2013,05,04,03,42,8.30
2013,05,04,03,43,8.30
2013,05,04,03,44,8.30
2013,05,04,03,45,8.30
2013,05,04,03,46,8.30
2013,05,04,03,47,8.30
2013,05,04,03,48,8.30
2013,05,04,03,49,8.30
2013,05,04,03,50,8.40
2013,05,04,03,51,8.40
2013,05,04,03,52,8.30
2013,05,04,03,53,8.30
2013,05,04,03,54,8.30
2013,05,04,03,55,8.30
2013,05,04,03,56,8.30
2013,05,04,03,57,8.30
2013,05,04,03,58,8.30
2013,05,04,03,59,8.30
2013,05,04,04,00,8.30
2013,05,04,04,01,8.30
2013,05,04,04,02,8.30
2013,05,04,04,03,8.30
2013,05,04,04,04,8.30
2013,05,04,04,05,8.30
2013,05,04,04,06,8.30
2013,05,04,04,07,8.30
2013,05,04,04,08,8.30
2013,05,04,04,09,8.30
2013,05,04,04,10,8.30
2013,05,04,04,11,8.30
2013,05,04,04,12,8.30
2013,05,04,04,13,8.30
2013,05,04,04,14,8.30
2013,05,04,04,15,8.30
2013,05,04,04,16,8.30
2013,05,04,04,17,8.30
2013,05,04,04,18,8.30
2013,05,04,04,19,8.30
2013,05,04,04,20,8.30
2013,05,04,04,21,8.30
2013,05,04,04,22,8.30
2013,05,04,04,23,8.30
2013,05,04,04,24,8.30
2013,05,04,04,25,8.30
2013,05,04,04,26,8.20
2013,05,04,04,27,8.20
2013,05,04,04,28,8.20
2013,05,04,04,29,8.20
2013,05,04,04,30,8.20
2013,05,04,04,31,8.20
2013,05,04,04,32,8.20
2013,05,04,04,33,8.20
2013,05,04,04,34,8.20
2013,05,04,04,35,8.20
2013,05,04,04,36,8.20
2013,05,04,04,37,8.20
2013,05,04,04,38,8.20
2013,05,04,04,39,8.20
2013,05,04,04,40,8.20
2013,05,04,04,41,8.20
2013,05,04,04,42,8.20
2013,05,04,04,43,8.20
2013,05,04,04,44,8.10
2013,05,04,04,45,8.10
2013,05,04,04,46,8.10
2013,05,04,04,47,8.10
2013,05,04,04,48,8.10
2013,05,04,04,49,8.10
2013,05,04,04,50,8.00
2013,05,04,04,51,7.90
2013,05,04,04,52,7.90
2013,05,04,04,53,7.90
2013,05,04,04,54,7.80
2013,05,04,04,55,7.80
2013,05,04,04,56,7.70
2013,05,04,04,57,7.70
2013,05,04,04,58,7.70
2013,05,04,04,59,7.60
2013,05,04,05,00,7.60
2013,05,04,05,01,7.50
2013,05,04,05,02,7.50
2013,05,04,05,03,7.40
2013,05,04,05,04,7.40
2013,05,04,05,05,7.40
2013,05,04,05,06,7.40
2013,05,04,05,07,7.40
2013,05,04,05,08,7.30
2013,05,04,05,09,7.30
2013,05,04,05,10,7.30
2013,05,04,05,11,7.30
2013,05,04,05,12,7.30
2013,05,04,05,13,7.30
2013,05,04,05,14,7.30
2013,05,04,05,15,7.30
2013,05,04,05,16,7.30
2013,05,04,05,17,7.30
2013,05,04,05,18,7.20
2013,05,04,05,19,7.20
2013,05,04,05,20,7.20
2013,05,04,05,21,7.20
2013,05,04,05,22,7.20
2013,05,04,05,23,7.20
2013,05,04,05,24,7.20
2013,05,04,05,25,7.10
2013,05,04,05,26,7.10
2013,05,04,05,27,7.10
2013,05,04,05,28,7.10
2013,05,04,05,29,7.10
2013,05,04,05,30,7.00
2013,05,04,05,31,7.00
2013,05,04,05,32,7.00
2013,05,04,05,33,6.90
2013,05,04,05,34,6.90
2013,05,04,05,35,6.90
2013,05,04,05,36,6.90
2013,05,04,05,37,6.90
2013,05,04,05,38,6.90
2013,05,04,05,39,6.90
2013,05,04,05,40,6.90
2013,05,04,05,41,6.90
2013,05,04,05,42,6.90
2013,05,04,05,43,6.90
2013,05,04,05,44,6.90
2013,05,04,05,45,6.90
2013,05,04,05,46,6.90
2013,05,04,05,47,6.90
2013,05,04,05,48,6.90
2013,05,04,05,49,6.90
2013,05,04,05,50,6.90
2013,05,04,05,51,6.90
2013,05,04,05,52,6.90
2013,05,04,05,53,6.90
2013,05,04,05,54,6.90
2013,05,04,05,55,6.90
2013,05,04,05,56,6.80
2013,05,04,05,57,6.80
2013,05,04,05,58,6.80
2013,05,04,05,59,6.80
2013,05,04,06,00,6.80
2013,05,04,06,01,6.80
2013,05,04,06,02,6.80
2013,05,04,06,03,6.80
2013,05,04,06,04,6.80
2013,05,04,06,05,6.80
2013,05,04,06,06,6.70
2013,05,04,06,07,6.70
2013,05,04,06,08,6.70
2013,05,04,06,09,6.70
2013,05,04,06,10,6.70
2013,05,04,06,11,6.70
2013,05,04,06,12,6.70
2013,05,04,06,13,6.70
2013,05,04,06,14,6.70
2013,05,04,06,15,6.70
2013,05,04,06,16,6.60
2013,05,04,06,17,6.60
2013,05,04,06,18,6.60
2013,05,04,06,19,6.60
2013,05,04,06,20,6.60
2013,05,04,06,21,6.60
2013,05,04,06,22,6.60
2013,05,04,06,23,6.60
2013,05,04,06,24,6.60
2013,05,04,06,25,6.60
2013,05,04,06,26,6.60
2013,05,04,06,27,6.60
2013,05,04,06,28,6.60
2013,05,04,06,29,6.60
2013,05,04,06,30,6.70
2013,05,04,06,31,6.70
2013,05,04,06,32,6.70
2013,05,04,06,33,6.70
2013,05,04,06,34,6.70
2013,05,04,06,35,6.70
2013,05,04,06,36,6.70
2013,05,04,06,37,6.80
2013,05,04,06,38,6.80
2013,05,04,06,39,6.80
2013,05,04,06,40,6.90
2013,05,04,06,41,6.90
2013,05,04,06,42,7.00
2013,05,04,06,43,7.10
2013,05,04,06,44,7.10
2013,05,04,06,45,7.10
2013,05,04,06,46,7.20
2013,05,04,06,47,7.20
2013,05,04,06,48,7.20
2013,05,04,06,49,7.30
2013,05,04,06,50,7.30
2013,05,04,06,51,7.30
2013,05,04,06,52,7.30
2013,05,04,06,53,7.30
2013,05,04,06,54,7.40
2013,05,04,06,55,7.40
2013,05,04,06,56,7.40
2013,05,04,06,57,7.50
2013,05,04,06,58,7.50
2013,05,04,06,59,7.60
2013,05,04,07,00,7.60
2013,05,04,07,01,7.60
2013,05,04,07,02,7.60
2013,05,04,07,03,7.60
2013,05,04,07,04,7.70
2013,05,04,07,05,7.70
2013,05,04,07,06,7.70
2013,05,04,07,07,7.70
2013,05,04,07,08,7.70
2013,05,04,07,09,7.80
2013,05,04,07,10,7.80
2013,05,04,07,11,7.80
2013,05,04,07,12,7.80
2013,05,04,07,13,7.90
2013,05,04,07,14,7.90
2013,05,04,07,15,8.00
2013,05,04,07,16,8.10
2013,05,04,07,17,8.10
2013,05,04,07,18,8.20
2013,05,04,07,19,8.20
2013,05,04,07,20,8.30
2013,05,04,07,21,8.30
2013,05,04,07,22,8.40
2013,05,04,07,23,8.50
2013,05,04,07,24,8.60
2013,05,04,07,25,8.70
2013,05,04,07,26,8.80
2013,05,04,07,27,8.80
2013,05,04,07,28,8.90
2013,05,04,07,29,9.00
2013,05,04,07,30,9.10
2013,05,04,07,31,9.20
2013,05,04,07,32,9.30
2013,05,04,07,33,9.30
2013,05,04,07,34,9.40
2013,05,04,07,35,9.50
2013,05,04,07,36,9.60
2013,05,04,07,37,9.70
2013,05,04,07,38,9.70
2013,05,04,07,39,9.80
2013,05,04,07,40,9.90
2013,05,04,07,41,9.90
2013,05,04,07,42,10.00
2013,05,04,07,43,10.10
2013,05,04,07,44,10.20
2013,05,04,07,45,10.20
2013,05,04,07,46,10.30
2013,05,04,07,47,10.30
2013,05,04,07,48,10.40
2013,05,04,07,49,10.50
2013,05,04,07,50,10.60
2013,05,04,07,51,10.60
2013,05,04,07,52,10.70
2013,05,04,07,53,10.80
2013,05,04,07,54,10.80
2013,05,04,07,55,10.80
2013,05,04,07,56,10.90
2013,05,04,07,57,10.90
2013,05,04,07,58,10.90
2013,05,04,07,59,11.10
2013,05,04,08,00,11.10
2013,05,04,08,01,11.10
2013,05,04,08,02,11.20
2013,05,04,08,03,11.20
2013,05,04,08,04,11.30
2013,05,04,08,05,11.30
2013,05,04,08,06,11.40
2013,05,04,08,07,11.40
2013,05,04,08,08,11.50
2013,05,04,08,09,11.60
2013,05,04,08,10,11.60
2013,05,04,08,11,11.60
2013,05,04,08,12,11.70
2013,05,04,08,13,11.70
2013,05,04,08,14,11.70
2013,05,04,08,15,11.70
2013,05,04,08,16,11.70
2013,05,04,08,17,11.70
2013,05,04,08,18,11.70
2013,05,04,08,19,11.80
2013,05,04,08,20,11.80
2013,05,04,08,21,11.80
2013,05,04,08,22,11.90
2013,05,04,08,23,11.90
2013,05,04,08,24,11.90
2013,05,04,08,25,12.00
2013,05,04,08,26,12.10
2013,05,04,08,27,12.10
2013,05,04,08,28,12.10
2013,05,04,08,29,12.10
2013,05,04,08,30,12.10
2013,05,04,08,31,12.20
2013,05,04,08,32,12.20
2013,05,04,08,33,12.30
2013,05,04,08,34,12.30
2013,05,04,08,35,12.40
2013,05,04,08,36,12.40
2013,05,04,08,37,12.40
2013,05,04,08,38,12.50
2013,05,04,08,39,12.60
2013,05,04,08,40,12.60
2013,05,04,08,41,12.60
2013,05,04,08,42,12.60
2013,05,04,08,43,12.70
2013,05,04,08,44,12.70
2013,05,04,08,45,12.80
2013,05,04,08,46,12.80
2013,05,04,08,47,12.90
2013,05,04,08,48,12.90
2013,05,04,08,49,13.00
2013,05,04,08,50,13.10
2013,05,04,08,51,13.10
2013,05,04,08,52,13.20
2013,05,04,08,53,13.20
2013,05,04,08,54,13.20
2013,05,04,08,55,13.20
2013,05,04,08,56,13.30
2013,05,04,08,57,13.30
2013,05,04,08,58,13.30
2013,05,04,08,59,13.30
2013,05,04,09,00,13.30
2013,05,04,09,01,13.30
2013,05,04,09,02,13.30
2013,05,04,09,03,13.30
2013,05,04,09,04,13.30
2013,05,04,09,05,13.30
2013,05,04,09,06,13.30
2013,05,04,09,07,13.30
2013,05,04,09,08,13.30
2013,05,04,09,09,13.40
2013,05,04,09,10,13.40
2013,05,04,09,11,13.40
2013,05,04,09,12,13.60
2013,05,04,09,13,13.60
2013,05,04,09,14,13.60
2013,05,04,09,15,13.70
2013,05,04,09,16,13.70
2013,05,04,09,17,13.80
2013,05,04,09,18,13.80
2013,05,04,09,19,13.80
2013,05,04,09,20,13.90
2013,05,04,09,21,13.90
2013,05,04,09,22,13.90
2013,05,04,09,23,14.00
2013,05,04,09,24,14.10
2013,05,04,09,25,14.20
2013,05,04,09,26,14.20
2013,05,04,09,27,14.30
2013,05,04,09,28,14.30
2013,05,04,09,29,14.40
2013,05,04,09,30,14.40
2013,05,04,09,31,14.50
2013,05,04,09,32,14.60
2013,05,04,09,33,14.60
2013,05,04,09,34,14.70
2013,05,04,09,35,14.70
2013,05,04,09,36,14.70
2013,05,04,09,37,14.80
2013,05,04,09,38,14.80
2013,05,04,09,39,14.90
2013,05,04,09,40,15.00
2013,05,04,09,41,15.10
2013,05,04,09,42,15.10
2013,05,04,09,43,15.20
2013,05,04,09,44,15.20
2013,05,04,09,45,15.30
2013,05,04,09,46,15.30
2013,05,04,09,47,15.30
2013,05,04,09,48,15.40
2013,05,04,09,49,15.40
2013,05,04,09,50,15.50
2013,05,04,09,51,15.60
2013,05,04,09,52,15.70
2013,05,04,09,53,15.70
2013,05,04,09,54,15.80
2013,05,04,09,55,15.90
2013,05,04,09,56,16.00
2013,05,04,09,57,16.10
2013,05,04,09,58,16.20
2013,05,04,09,59,16.20
2013,05,04,10,00,16.30
2013,05,04,10,01,16.40
2013,05,04,10,02,16.40
2013,05,04,10,03,16.50
2013,05,04,10,04,16.60
2013,05,04,10,05,16.70
2013,05,04,10,06,16.80
2013,05,04,10,07,16.80
2013,05,04,10,08,16.90
2013,05,04,10,09,16.90
2013,05,04,10,10,16.90
2013,05,04,10,11,17.00
2013,05,04,10,12,17.10
2013,05,04,10,13,17.10
2013,05,04,10,14,17.10
2013,05,04,10,15,17.20
2013,05,04,10,16,17.20
2013,05,04,10,17,17.20
2013,05,04,10,18,17.30
2013,05,04,10,19,17.30
2013,05,04,10,20,17.30
2013,05,04,10,21,17.40
2013,05,04,10,22,17.60
2013,05,04,10,23,17.70
2013,05,04,10,24,17.70
2013,05,04,10,25,17.70
2013,05,04,10,26,17.80
2013,05,04,10,27,17.80
2013,05,04,10,28,17.70
2013,05,04,10,29,17.60
2013,05,04,10,30,17.40
2013,05,04,10,31,17.40
2013,05,04,10,32,17.30
2013,05,04,10,33,17.30
2013,05,04,10,34,17.30
2013,05,04,10,35,17.30
2013,05,04,10,36,17.30
2013,05,04,10,37,17.30
2013,05,04,10,38,17.30
2013,05,04,10,39,17.30
2013,05,04,10,40,17.40
2013,05,04,10,41,17.40
2013,05,04,10,42,17.40
2013,05,04,10,43,17.40
2013,05,04,10,44,17.50
2013,05,04,10,45,17.40
2013,05,04,10,46,17.40
2013,05,04,10,47,17.40
2013,05,04,10,48,17.40
2013,05,04,10,49,17.50
2013,05,04,10,50,17.60
2013,05,04,10,51,17.70
2013,05,04,10,52,17.80
2013,05,04,10,53,17.80
2013,05,04,10,54,17.90
2013,05,04,10,55,18.10
2013,05,04,10,56,18.20
2013,05,04,10,57,18.30
2013,05,04,10,58,18.60
2013,05,04,10,59,18.70
2013,05,04,11,00,18.90
2013,05,04,11,01,19.10
2013,05,04,11,02,19.20
2013,05,04,11,03,19.30
2013,05,04,11,04,19.40
2013,05,04,11,05,19.60
2013,05,04,11,06,19.70
2013,05,04,11,07,19.70
2013,05,04,11,08,19.80
2013,05,04,11,09,19.80
2013,05,04,11,10,19.90
2013,05,04,11,11,19.90
2013,05,04,11,12,19.90
2013,05,04,11,13,20.00
2013,05,04,11,14,19.90
2013,05,04,11,15,20.00
2013,05,04,11,16,19.90
2013,05,04,11,17,20.00
2013,05,04,11,18,20.00
2013,05,04,11,19,20.10
2013,05,04,11,20,20.20
2013,05,04,11,21,20.20
2013,05,04,11,22,20.30
2013,05,04,11,23,20.30
2013,05,04,11,24,20.30
2013,05,04,11,25,20.40
2013,05,04,11,26,20.40
2013,05,04,11,27,20.60
2013,05,04,11,28,20.60
2013,05,04,11,29,20.70
2013,05,04,11,30,20.70
2013,05,04,11,31,20.70
2013,05,04,11,32,20.80
2013,05,04,11,33,20.80
2013,05,04,11,34,20.90
2013,05,04,11,35,20.90
2013,05,04,11,36,20.90
2013,05,04,11,37,21.10
2013,05,04,11,38,21.20
2013,05,04,11,39,21.20
2013,05,04,11,40,21.20
2013,05,04,11,41,21.30
2013,05,04,11,42,21.30
2013,05,04,11,43,21.40
2013,05,04,11,44,21.40
2013,05,04,11,45,21.40
2013,05,04,11,46,21.50
2013,05,04,11,47,21.60
2013,05,04,11,48,21.60
2013,05,04,11,49,21.60
2013,05,04,11,50,21.60
2013,05,04,11,51,21.70
2013,05,04,11,52,21.70
2013,05,04,11,53,21.70
2013,05,04,11,54,21.70
2013,05,04,11,55,21.80
2013,05,04,11,56,21.80
2013,05,04,11,57,21.90
2013,05,04,11,58,21.90
2013,05,04,11,59,22.00
2013,05,04,12,00,22.10
2013,05,04,12,01,22.10
2013,05,04,12,02,22.10
2013,05,04,12,03,22.10
2013,05,04,12,04,22.20
2013,05,04,12,05,22.30
2013,05,04,12,06,22.30
2013,05,04,12,07,22.30
2013,05,04,12,08,22.40
2013,05,04,12,09,22.40
2013,05,04,12,10,22.50
2013,05,04,12,11,22.60
2013,05,04,12,12,22.60
2013,05,04,12,13,22.70
2013,05,04,12,14,22.70
2013,05,04,12,15,22.70
2013,05,04,12,16,22.80
2013,05,04,12,17,22.80
2013,05,04,12,18,22.80
2013,05,04,12,19,22.90
2013,05,04,12,20,22.90
2013,05,04,12,21,23.00
2013,05,04,12,22,23.10
2013,05,04,12,23,23.10
2013,05,04,12,24,23.10
2013,05,04,12,25,23.10
2013,05,04,12,26,23.10
2013,05,04,12,27,23.10
2013,05,04,12,28,23.10
2013,05,04,12,29,23.10
2013,05,04,12,30,23.10
2013,05,04,12,31,23.10
2013,05,04,12,32,23.20
2013,05,04,12,33,23.20
2013,05,04,12,34,23.30
2013,05,04,12,35,23.30
2013,05,04,12,36,23.30
2013,05,04,12,37,23.30
2013,05,04,12,38,23.40
2013,05,04,12,39,23.40
2013,05,04,12,40,23.60
2013,05,04,12,41,23.60
2013,05,04,12,42,23.60
2013,05,04,12,43,23.60
2013,05,04,12,44,23.60
2013,05,04,12,45,23.60
2013,05,04,12,46,23.60
2013,05,04,12,47,23.70
2013,05,04,12,48,23.70
2013,05,04,12,49,23.70
2013,05,04,12,50,23.80
2013,05,04,12,51,23.80
2013,05,04,12,52,23.90
2013,05,04,12,53,24.00
2013,05,04,12,54,24.10
2013,05,04,12,55,24.10
2013,05,04,12,56,24.10
2013,05,04,12,57,24.10
2013,05,04,12,58,24.10
2013,05,04,12,59,24.10
2013,05,04,13,00,24.10
2013,05,04,13,01,24.00
2013,05,04,13,02,24.00
2013,05,04,13,03,24.00
2013,05,04,13,04,24.10
2013,05,04,13,05,24.10
2013,05,04,13,06,24.20
2013,05,04,13,07,24.20
2013,05,04,13,08,24.30
2013,05,04,13,09,24.30
2013,05,04,13,10,24.30
2013,05,04,13,11,24.40
2013,05,04,13,12,24.40
2013,05,04,13,13,24.40
2013,05,04,13,14,24.40
2013,05,04,13,15,24.40
2013,05,04,13,16,24.50
2013,05,04,13,17,24.60
2013,05,04,13,18,24.60
2013,05,04,13,19,24.70
2013,05,04,13,20,24.80
2013,05,04,13,21,24.90
2013,05,04,13,22,25.00
2013,05,04,13,23,25.10
2013,05,04,13,24,25.10
2013,05,04,13,25,25.20
2013,05,04,13,26,25.20
2013,05,04,13,27,25.20
2013,05,04,13,28,25.30
2013,05,04,13,29,25.30
2013,05,04,13,30,25.40
2013,05,04,13,31,25.40
2013,05,04,13,32,25.40
2013,05,04,13,33,25.40
2013,05,04,13,34,25.40
2013,05,04,13,35,25.50
2013,05,04,13,36,25.60
2013,05,04,13,37,25.60
2013,05,04,13,38,25.60
2013,05,04,13,39,25.60
2013,05,04,13,40,25.60
2013,05,04,13,41,25.60
2013,05,04,13,42,25.60
2013,05,04,13,43,25.60
2013,05,04,13,44,25.70
2013,05,04,13,45,25.70
2013,05,04,13,46,25.70
2013,05,04,13,47,25.80
2013,05,04,13,48,25.80
2013,05,04,13,49,25.80
2013,05,04,13,50,25.90
2013,05,04,13,51,25.90
2013,05,04,13,52,25.90
2013,05,04,13,53,26.00
2013,05,04,13,54,26.10
2013,05,04,13,55,26.10
2013,05,04,13,56,26.10
2013,05,04,13,57,26.20
2013,05,04,13,58,26.10
2013,05,04,13,59,26.10
2013,05,04,14,00,26.10
2013,05,04,14,01,26.10
2013,05,04,14,02,26.10
2013,05,04,14,03,26.20
2013,05,04,14,04,26.30
2013,05,04,14,05,26.30
2013,05,04,14,06,26.30
2013,05,04,14,07,26.40
2013,05,04,14,08,26.40
2013,05,04,14,09,26.40
2013,05,04,14,10,26.40
2013,05,04,14,11,26.40
2013,05,04,14,12,26.40
2013,05,04,14,13,26.40
2013,05,04,14,14,26.30
2013,05,04,14,15,26.40
2013,05,04,14,16,26.40
2013,05,04,14,17,26.40
2013,05,04,14,18,26.50
2013,05,04,14,19,26.60
2013,05,04,14,20,26.60
2013,05,04,14,21,26.70
2013,05,04,14,22,26.70
2013,05,04,14,23,26.80
2013,05,04,14,24,26.80
2013,05,04,14,25,26.80
2013,05,04,14,26,26.80
2013,05,04,14,27,26.80
2013,05,04,14,28,26.80
2013,05,04,14,29,26.70
2013,05,04,14,30,26.70
2013,05,04,14,31,26.70
2013,05,04,14,32,26.70
2013,05,04,14,33,26.80
2013,05,04,14,34,26.80
2013,05,04,14,35,26.90
2013,05,04,14,36,26.90
2013,05,04,14,37,26.90
2013,05,04,14,38,26.90
2013,05,04,14,39,26.90
2013,05,04,14,40,27.00
2013,05,04,14,41,27.00
2013,05,04,14,42,26.90
2013,05,04,14,43,26.80
2013,05,04,14,44,26.80
2013,05,04,14,45,26.80
2013,05,04,14,46,26.80
2013,05,04,14,47,26.80
2013,05,04,14,48,26.90
2013,05,04,14,49,26.90
2013,05,04,14,50,27.10
2013,05,04,14,51,27.10
2013,05,04,14,52,27.20
2013,05,04,14,53,27.30
2013,05,04,14,54,27.30
2013,05,04,14,55,27.40
2013,05,04,14,56,27.40
2013,05,04,14,57,27.40
2013,05,04,14,58,27.40
2013,05,04,14,59,27.50
2013,05,04,15,00,27.50
2013,05,04,15,01,27.50
2013,05,04,15,02,27.50
2013,05,04,15,03,27.50
2013,05,04,15,04,27.50
2013,05,04,15,05,27.50
2013,05,04,15,06,27.50
2013,05,04,15,07,27.50
2013,05,04,15,08,27.60
2013,05,04,15,09,27.60
2013,05,04,15,10,27.60
2013,05,04,15,11,27.60
2013,05,04,15,12,27.60
2013,05,04,15,13,27.50
2013,05,04,15,14,27.50
2013,05,04,15,15,27.40
2013,05,04,15,16,27.40
2013,05,04,15,17,27.30
2013,05,04,15,18,27.30
2013,05,04,15,19,27.30
2013,05,04,15,20,27.30
2013,05,04,15,21,27.30
2013,05,04,15,22,27.30
2013,05,04,15,23,27.40
2013,05,04,15,24,27.30
2013,05,04,15,25,27.40
2013,05,04,15,26,27.40
2013,05,04,15,27,27.40
2013,05,04,15,28,27.40
2013,05,04,15,29,27.50
2013,05,04,15,30,27.50
2013,05,04,15,31,27.60
2013,05,04,15,32,27.60
2013,05,04,15,33,27.70
2013,05,04,15,34,27.70
2013,05,04,15,35,27.80
2013,05,04,15,36,27.90
2013,05,04,15,37,28.00
2013,05,04,15,38,28.10
2013,05,04,15,39,28.20
2013,05,04,15,40,28.20
2013,05,04,15,41,28.30
2013,05,04,15,42,28.30
2013,05,04,15,43,28.30
2013,05,04,15,44,28.40
2013,05,04,15,45,28.40
2013,05,04,15,46,28.40
2013,05,04,15,47,28.40
2013,05,04,15,48,28.30
2013,05,04,15,49,28.30
2013,05,04,15,50,28.30
2013,05,04,15,51,28.30
2013,05,04,15,52,28.30
2013,05,04,15,53,28.40
2013,05,04,15,54,28.40
2013,05,04,15,55,28.30
2013,05,04,15,56,28.30
2013,05,04,15,57,28.30
2013,05,04,15,58,28.30
2013,05,04,15,59,28.30
2013,05,04,16,00,28.30
2013,05,04,16,01,28.20
2013,05,04,16,02,28.20
2013,05,04,16,03,28.20
2013,05,04,16,04,28.20
2013,05,04,16,05,28.10
2013,05,04,16,06,28.10
2013,05,04,16,07,28.10
2013,05,04,16,08,28.00
2013,05,04,16,09,28.00
2013,05,04,16,10,28.00
2013,05,04,16,11,28.00
2013,05,04,16,12,28.00
2013,05,04,16,13,28.00
2013,05,04,16,14,27.90
2013,05,04,16,15,27.90
2013,05,04,16,16,27.90
2013,05,04,16,17,27.80
2013,05,04,16,18,27.80
2013,05,04,16,19,27.70
2013,05,04,16,20,27.80
2013,05,04,16,21,27.80
2013,05,04,16,22,27.80
2013,05,04,16,23,27.80
2013,05,04,16,24,27.90
2013,05,04,16,25,27.90
2013,05,04,16,26,27.90
2013,05,04,16,27,27.90
2013,05,04,16,28,27.90
2013,05,04,16,29,27.90
2013,05,04,16,30,27.90
2013,05,04,16,31,27.90
2013,05,04,16,32,27.90
2013,05,04,16,33,27.90
2013,05,04,16,34,27.90
2013,05,04,16,35,27.90
2013,05,04,16,36,27.90
2013,05,04,16,37,27.90
2013,05,04,16,38,27.90
2013,05,04,16,39,27.90
2013,05,04,16,40,28.00
2013,05,04,16,41,28.00
2013,05,04,16,42,28.00
2013,05,04,16,43,28.00
2013,05,04,16,44,28.00
2013,05,04,16,45,28.00
2013,05,04,16,46,28.00
2013,05,04,16,47,28.00
2013,05,04,16,48,28.00
2013,05,04,16,49,28.00
2013,05,04,16,50,27.90
2013,05,04,16,51,27.90
2013,05,04,16,52,27.90
2013,05,04,16,53,27.90
2013,05,04,16,54,27.90
2013,05,04,16,55,27.90
2013,05,04,16,56,27.80
2013,05,04,16,57,27.80
2013,05,04,16,58,27.80
2013,05,04,16,59,27.80
2013,05,04,17,00,27.80
2013,05,04,17,01,27.80
2013,05,04,17,02,27.70
2013,05,04,17,03,27.70
2013,05,04,17,04,27.70
2013,05,04,17,05,27.70
2013,05,04,17,06,27.70
2013,05,04,17,07,27.70
2013,05,04,17,08,27.70
2013,05,04,17,09,27.70
2013,05,04,17,10,27.70
2013,05,04,17,11,27.70
2013,05,04,17,12,27.70
2013,05,04,17,13,27.70
2013,05,04,17,14,27.70
2013,05,04,17,15,27.70
2013,05,04,17,16,27.70
2013,05,04,17,17,27.60
2013,05,04,17,18,27.60
2013,05,04,17,19,27.50
2013,05,04,17,20,27.40
2013,05,04,17,21,27.40
2013,05,04,17,22,27.40
2013,05,04,17,23,27.30
2013,05,04,17,24,27.30
2013,05,04,17,25,27.20
2013,05,04,17,26,27.20
2013,05,04,17,27,27.20
2013,05,04,17,28,27.10
2013,05,04,17,29,27.10
2013,05,04,17,30,27.10
2013,05,04,17,31,27.00
2013,05,04,17,32,27.00
2013,05,04,17,33,26.90
2013,05,04,17,34,26.90
2013,05,04,17,35,26.90
2013,05,04,17,36,26.90
2013,05,04,17,37,26.90
2013,05,04,17,38,26.90
2013,05,04,17,39,26.90
2013,05,04,17,40,26.90
2013,05,04,17,41,26.90
2013,05,04,17,42,26.80
2013,05,04,17,43,26.80
2013,05,04,17,44,26.80
2013,05,04,17,45,26.80
2013,05,04,17,46,26.80
2013,05,04,17,47,26.80
2013,05,04,17,48,26.80
2013,05,04,17,49,26.80
2013,05,04,17,50,26.80
2013,05,04,17,51,26.70
2013,05,04,17,52,26.70
2013,05,04,17,53,26.70
2013,05,04,17,54,26.60
2013,05,04,17,55,26.60
2013,05,04,17,56,26.60
2013,05,04,17,57,26.60
2013,05,04,17,58,26.50